Satellite: NO-44
Catalog number: 26931
Epoch time:      10090.40775090
Element set:     422
Inclination:      067.0512 deg
RA of node:       044.3645 deg
Eccentricity:    0.0006344
Arg of perigee:   263.7410 deg
Mean anomaly:     096.2960 deg
Mean motion:   14.29588219 rev/day
Decay rate:      -2.26e-06 rev/day^2
Epoch rev:           44363
Checksum:              288

Satellite: SO-50
Catalog number: 27607
Epoch time:      10089.92259065
Element set:     138
Inclination:      064.5571 deg
RA of node:       234.2312 deg
Eccentricity:    0.0035927
Arg of perigee:   113.7058 deg
Mean anomaly:     246.7817 deg
Mean motion:   14.71518708 rev/day
Decay rate:       1.76e-06 rev/day^2
Epoch rev:           39086
Checksum:              318

Satellite: CO-55
Catalog number: 27844
Epoch time:      10090.20250752
Element set:     814
Inclination:      098.7124 deg
RA of node:       100.2931 deg
Eccentricity:    0.0010648
Arg of perigee:   039.7649 deg
Mean anomaly:     320.4320 deg
Mean motion:   14.20694930 rev/day
Decay rate:        9.8e-07 rev/day^2
Epoch rev:           35001
Checksum:              274

Satellite: CO-57
Catalog number: 27848
Epoch time:      10090.00942843
Element set:     764
Inclination:      098.7167 deg
RA of node:       099.1857 deg
Eccentricity:    0.0010579
Arg of perigee:   045.1519 deg
Mean anomaly:     315.0523 deg
Mean motion:   14.20488735 rev/day
Decay rate:        4.9e-07 rev/day^2
Epoch rev:           34994
Checksum:              336

Satellite: AO-51
Catalog number: 28375
Epoch time:      10089.52883443
Element set:     639
Inclination:      098.0597 deg
RA of node:       087.5153 deg
Eccentricity:    0.0084483
Arg of perigee:   336.8298 deg
Mean anomaly:     022.9097 deg
Mean motion:   14.40676456 rev/day
Decay rate:        4.7e-07 rev/day^2
Epoch rev:           30218
Checksum:              345

Satellite: GENESAT1
Catalog number: 29655
Epoch time:      10090.52292747
Element set:     994
Inclination:      040.0193 deg
RA of node:       170.6132 deg
Eccentricity:    0.0005065
Arg of perigee:   121.7216 deg
Mean anomaly:     238.4088 deg
Mean motion:   15.79447428 rev/day
Decay rate:     6.4755e-04 rev/day^2
Epoch rev:           18765
Checksum:              316

Satellite: CP3
Catalog number: 31129
Epoch time:      10090.08389430
Element set:     541
Inclination:      097.9489 deg
RA of node:       133.8038 deg
Eccentricity:    0.0103681
Arg of perigee:   115.8983 deg
Mean anomaly:     245.2947 deg
Mean motion:   14.52230564 rev/day
Decay rate:       2.32e-06 rev/day^2
Epoch rev:           15652
Checksum:              300

Satellite: CO-65
Catalog number: 32785
Epoch time:      10090.63584317
Element set:     642
Inclination:      097.9035 deg
RA of node:       156.6105 deg
Eccentricity:    0.0015233
Arg of perigee:   172.9180 deg
Mean anomaly:     187.2223 deg
Mean motion:   14.81616703 rev/day
Decay rate:       5.19e-06 rev/day^2
Epoch rev:           10400
Checksum:              286

Satellite: KKS-1
Catalog number: 33493
Epoch time:      10090.82560922
Element set:     344
Inclination:      098.0749 deg
RA of node:       209.7024 deg
Eccentricity:    0.0020713
Arg of perigee:   034.9182 deg
Mean anomaly:     325.3396 deg
Mean motion:   14.80917782 rev/day
Decay rate:       6.81e-06 rev/day^2
Epoch rev:            6403
Checksum:              295

Satellite: SOHLA-1
Catalog number: 33496
Epoch time:      10089.92354133
Element set:      64
Inclination:      098.0498 deg
RA of node:       200.0457 deg
Eccentricity:    0.0007760
Arg of perigee:   092.9793 deg
Mean anomaly:     267.2296 deg
Mean motion:   14.69480005 rev/day
Decay rate:       -1.2e-07 rev/day^2
Epoch rev:            6338
Checksum:              305

/EX
SB KEPS @ AMSAT  $ORB10090.W
Orbital Elements  10090.WEATHER

HR AMSAT ORBITAL ELEMENTS FOR WEATHER SATELLITES
FROM WA5QGD FORT WORTH,TX March 31, 2010
Send Subscribe/unsubscribe to KEPS at http://www.amsat.org/mailman/listinfo/kep
BID: ORB10090.W
TO ALL RADIO AMATEURS BT

Satellite: NOAA-10
Catalog number: 16969
Epoch time:      10090.20568451
Element set:      10
Inclination:      098.6644 deg
RA of node:       119.8803 deg
Eccentricity:    0.0013245
Arg of perigee:   080.7530 deg
Mean anomaly:     279.5164 deg
Mean motion:   14.27410492 rev/day
Decay rate:       -9.4e-07 rev/day^2
Epoch rev:           22445
Checksum:              289

Satellite: NOAA-11
Catalog number: 19531
Epoch time:      10090.31266795
Element set:      25
Inclination:      098.7680 deg
RA of node:       180.6637 deg
Eccentricity:    0.0011989
Arg of perigee:   013.7378 deg
Mean anomaly:     346.4141 deg
Mean motion:   14.14918583 rev/day
Decay rate:       -2.2e-07 rev/day^2
Epoch rev:           11012
Checksum:              291

Satellite: NOAA-12
Catalog number: 21263
Epoch time:      10090.37664408
Element set:     510
Inclination:      098.7690 deg
RA of node:       103.5372 deg
Eccentricity:    0.0013039
Arg of perigee:   036.4578 deg
Mean anomaly:     323.7488 deg
Mean motion:   14.25625069 rev/day
Decay rate:        6.8e-07 rev/day^2
Epoch rev:           98131
Checksum:              302

